User: anonymous   Login
Location: *
(31.2983°S, 151.4094°E)
Time: 11:44:29
(UTC+00:00)
Language:

Cosmos 2297 - Orbit

View from above orbital plane
View from above orbital plane
View from above satellite
View from above satellite

Ground track
Ground track

The orbit data is extracted from the following two-line orbital elements,

1 23404U 94077A   20217.50937715 +.00000125 +00000-0 +91595-4 0  9990
2 23404 071.0155 057.4741 0016585 217.8044 142.1915 14.13541054325734
Epoch (UTC): 04 August 2020 12:13:30
Eccentricity: 0.0016585
inclination: 71.0155°
perigee height: 835 km
apogee height: 859 km
right ascension of ascending node: 57.4741°
argument of perigee: 217.8044°
revolutions per day: 14.13541054
mean anomaly at epoch: 142.1915°
orbit number at epoch: 32573

The dashed part of the orbit path shows where the satellite is in the earth's shadow,  

DLR